Location: Mococo
(38.0255°N, 122.1161°W)
Time: 03:47:32
(UTC+00:00)

Cosmos 1503 Rocket - Pass Details

Date: 13 February 2026
Orbit: 748 x 787 km, 74.0° (Epoch: 7 March)

Event Time Altitude Azimuth Distance (km) Brightness Sun altitude
Exits shadow 13:47:56 - 223° (SW) 2,496 6.3 -14.9°
Reaches altitude 10° 13:48:34 10° 226° (SW) 2,267 6.1 -14.8°
Maximum altitude 13:53:20 38° 294° (WNW) 1,145 4.4 -13.8°
Drops below altitude 10° 13:58:10 10° 2° (N) 2,300 6.4 -12.9°
Sets 14:00:44 0° 11° (N) 3,236 7.3 -12.4°
